Tallulah, LA

5:05 PM CDT on September 28, 2016 (GMT -0500)
Vicksburg Tallulah Regional

Weather History for KTVR - February, 2012

Change the Weather History Date:

Monday, February 13, 2012

  Actual Average Record
Temperature  
Mean Temperature 40 °F 49 °F  
Max Temperature 49 °F 60 °F 81 °F (1949)
Min Temperature 31 °F 39 °F 17 °F (1981)
Degree Days  
Heating Degree Days 25 16  
Month to date heating degree days 184 223  
Since 1 July heating degree days 1546 1767  
Cooling Degree Days 0 0  
Month to date cooling degree days 2 0  
Year to date cooling degree days 7 3  
Moisture  
Dew Point 36 °F    
Average Humidity 70    
Maximum Humidity 100    
Minimum Humidity 40    
Precipitation  
Precipitation 0.84 in 0.20 in 2.88 in (1950)
Month to date precipitation 4.19 2.40  
Year to date precipitation 8.23 7.47  
Sea Level Pressure  
Sea Level Pressure 30.07 in    
Wind  
Wind Speed 8 mph (ESE)    
Max Wind Speed 17 mph    
Max Gust Speed 21 mph    
Visibility 8 miles    
Events Rain    
T = Trace of Precipitation, MM = Missing Value Source: NWS Daily Summary

Daily Weather History Graph

Daily Weather History Graph

Search for Another Location

Airport or City:

Trip Planner

Search our weather history database for the weather conditions in past years. The results will help you decide how hot, cold, wet, or windy it might be!

Date:

Astronomy

Feb. 13, 2012 Rise Set
Actual Time 6:49 AM CST 5:48 PM CST
Civil Twilight 6:23 AM CST 6:13 PM CST
Nautical Twilight 5:55 AM CST 6:42 PM CST
Astronomical Twilight 5:26 AM CST 7:10 PM CST
Moon No Moon Rise 10:14 AM CST (2/13)
Length of Visible Light 11h 49m
Length of Day
10h 58m
Waning Gibbous, 61% of the Moon is Illuminated
Feb 13
Waning Gibbous
Feb 14
Last Quarter
Feb 21
New
Feb 29
First Quarter
Mar 8
Full

Hourly Weather History & Observations

Time (CST) Temp. Windchill Dew Point Humidity Pressure Visibility Wind Dir Wind Speed Gust Speed Precip Events Conditions
12:53 AM 32.0 °F - 21.9 °F 66% 30.38 in 10.0 mi Calm Calm - N/A   Clear
1:53 AM 30.9 °F 27.5 °F 21.0 °F 67% 30.37 in 10.0 mi ENE 3.5 mph - N/A   Partly Cloudy
2:53 AM 30.9 °F 27.5 °F 24.1 °F 76% 30.33 in 10.0 mi SE 3.5 mph - N/A   Mostly Cloudy
3:53 AM 34.0 °F 28.0 °F 21.9 °F 61% 30.30 in 10.0 mi ESE 6.9 mph - N/A   Overcast
4:53 AM 34.0 °F 28.0 °F 21.9 °F 61% 30.30 in 10.0 mi ESE 6.9 mph - N/A   Overcast
5:53 AM 35.1 °F 29.3 °F 19.9 °F 54% 30.29 in 10.0 mi ESE 6.9 mph - N/A   Overcast
6:53 AM 35.1 °F 32.2 °F 23.0 °F 61% 30.31 in 10.0 mi SE 3.5 mph - N/A   Overcast
7:53 AM 37.9 °F 31.5 °F 19.9 °F 48% 30.29 in 10.0 mi SE 9.2 mph - N/A   Overcast
8:53 AM 39.9 °F 33.4 °F 18.0 °F 41% 30.27 in 10.0 mi SE 10.4 mph - N/A   Overcast
9:53 AM 41.0 °F 35.8 °F 19.9 °F 43% 30.26 in 10.0 mi ESE 8.1 mph - N/A   Overcast
10:53 AM 43.0 °F 38.2 °F 21.0 °F 42% 30.23 in 10.0 mi ESE 8.1 mph - N/A   Overcast
11:53 AM 43.0 °F 37.2 °F 28.9 °F 58% 30.17 in 10.0 mi ESE 10.4 mph - 0.01 in Rain Light Rain
12:53 PM 43.0 °F 38.8 °F 32.0 °F 65% 30.15 in 10.0 mi ESE 6.9 mph - 0.02 in Rain Light Rain
1:53 PM 41.0 °F 33.9 °F 34.0 °F 76% 30.08 in 10.0 mi East 12.7 mph - 0.02 in Rain Light Rain
2:53 PM 42.1 °F 34.5 °F 36.0 °F 79% 30.04 in 10.0 mi ESE 15.0 mph - 0.04 in Rain Light Rain
3:53 PM 42.1 °F 36.1 °F 39.0 °F 89% 30.02 in 3.0 mi ESE 10.4 mph - 0.13 in Rain Heavy Rain
4:53 PM 42.1 °F 34.9 °F 39.9 °F 92% 29.97 in 3.0 mi ESE 13.8 mph - 0.09 in Rain Rain
5:08 PM 42.8 °F 37.0 °F 41.0 °F 93% 29.96 in 2.0 mi ESE 10.4 mph - 0.06 in Rain Heavy Rain
5:11 PM 42.8 °F 37.5 °F 41.0 °F 93% 29.97 in 1.8 mi ESE 9.2 mph - 0.08 in Rain Heavy Rain
5:25 PM 42.8 °F 38.6 °F 41.0 °F 93% 29.97 in 1.2 mi ESE 6.9 mph - 0.16 in Rain Rain
5:36 PM 42.8 °F 37.5 °F 42.8 °F 100% 29.96 in 2.5 mi SE 9.2 mph - 0.18 in Rain Rain
5:53 PM 44.1 °F 38.1 °F 42.1 °F 93% 29.98 in 6.0 mi SE 11.5 mph - 0.20 in Rain Light Rain
6:19 PM 44.6 °F 38.4 °F 42.8 °F 93% 29.94 in 10.0 mi SE 12.7 mph - 0.01 in Rain Light Rain
6:53 PM 46.0 °F 39.9 °F 44.1 °F 93% 29.95 in 7.0 mi SE 13.8 mph - 0.02 in Rain Light Rain
7:42 PM 48.2 °F - 44.6 °F 87% 29.91 in 10.0 mi SE 13.8 mph - 0.03 in Rain Light Rain
7:50 PM 48.2 °F - 46.4 °F 93% 29.92 in 8.0 mi SE 11.5 mph - 0.03 in Rain Light Rain
7:53 PM 48.0 °F - 46.0 °F 93% 29.95 in 8.0 mi SE 8.1 mph - 0.04 in Rain Light Rain
8:03 PM 48.2 °F - 46.4 °F 93% 29.96 in 3.0 mi NW 8.1 mph - 0.04 in Rain Rain
8:07 PM 48.2 °F - 46.4 °F 93% 29.96 in 1.5 mi Calm Calm - 0.11 in Rain Heavy Rain
8:24 PM 46.4 °F 44.3 °F 46.4 °F 100% 29.98 in 3.0 mi Variable 4.6 mph - 0.24 in Rain Rain
8:46 PM 46.4 °F 43.5 °F 46.4 °F 100% 29.96 in 6.0 mi East 5.8 mph - 0.27 in Rain Light Rain
8:53 PM 46.9 °F - 46.0 °F 97% 29.99 in 7.0 mi NNW 4.6 mph - 0.27 in Rain Light Rain
9:23 PM 46.4 °F 42.4 °F 46.4 °F 100% 29.94 in 10.0 mi ESE 8.1 mph - 0.00 in Rain Light Rain
9:53 PM 46.9 °F - 46.0 °F 97% 29.96 in 10.0 mi ESE 4.6 mph - 0.00 in   Overcast
10:24 PM 48.2 °F - 46.4 °F 93% 29.94 in 10.0 mi East 4.6 mph - N/A   Overcast
10:53 PM 48.0 °F - 46.0 °F 93% 29.95 in 10.0 mi ESE 6.9 mph - N/A   Overcast
11:09 PM 48.2 °F - 46.4 °F 93% 29.92 in 10.0 mi SE 8.1 mph - N/A   Overcast
11:53 PM 48.9 °F - 46.9 °F 93% 29.93 in 10.0 mi SE 10.4 mph - N/A   Overcast